| time (UTC) | temp C | wind direction | speed KPH | gust KPH | rain 1hr cm | rain 24hr cm | rain mn cm | humidity % | barometer mb |
| 20260510214029 | 25 | 331 | 3.2 | 4.8 | 0.00 | 0.03 | 0.00 | 73 | 1016.6 |
| 20260510213532 | 25 | 26 | 1.6 | 6.4 | 0.00 | 0.03 | 0.00 | 68 | 1016.5 |
| 20260510213031 | 25 | 355 | 3.2 | 6.4 | 0.00 | 0.03 | 0.00 | 69 | 1016.6 |
| 20260510212519 | 25 | 350 | 3.2 | 6.4 | 0.00 | 0.03 | 0.00 | 69 | 1016.4 |
| 20260510212020 | 25 | 326 | 1.6 | 6.4 | 0.00 | 0.03 | 0.00 | 71 | 1016.3 |
| 20260510211519 | 25 | 175 | 3.2 | 6.4 | 0.00 | 0.03 | 0.00 | 67 | 1016.3 |
| 20260510211023 | 25 | 138 | 1.6 | 4.8 | 0.00 | 0.03 | 0.00 | 71 | 1016.4 |
| 20260510210523 | 25 | 355 | 1.6 | 8.0 | 0.00 | 0.03 | 0.00 | 68 | 1016.4 |
| 20260510210048 | 25 | 314 | 1.6 | 9.7 | 0.00 | 0.03 | 0.00 | 70 | 1016.4 |
| 20260510205542 | 25 | 46 | 4.8 | 9.7 | 0.00 | 0.03 | 0.00 | 67 | 1016.4 |
| 20260510205023 | 25 | 289 | 1.6 | 6.4 | 0.00 | 0.03 | 0.00 | 73 | 1016.4 |
| 20260510204520 | 25 | 355 | 1.6 | 8.0 | 0.00 | 0.03 | 0.00 | 71 | 1016.4 |
| 20260510204032 | 25 | 320 | 3.2 | 8.0 | 0.00 | 0.03 | 0.00 | 74 | 1016.5 |
| 20260510203531 | 25 | 10 | 0.0 | 1.6 | 0.00 | 0.03 | 0.00 | 68 | 1016.5 |
| 20260510203019 | 25 | 5 | 0.0 | 4.8 | 0.00 | 0.03 | 0.00 | 72 | 1016.6 |
| 20260510202520 | 24 | 298 | 1.6 | 4.8 | 0.00 | 0.03 | 0.00 | 71 | 1016.6 |
| 20260510202021 | 24 | 296 | 0.0 | 6.4 | 0.00 | 0.03 | 0.00 | 70 | 1016.7 |
| 20260510201521 | 24 | 288 | 1.6 | 6.4 | 0.00 | 0.03 | 0.00 | 74 | 1016.7 |
| 20260510201047 | 24 | 313 | 1.6 | 9.7 | 0.00 | 0.03 | 0.00 | 70 | 1016.7 |
| 20260510200523 | 24 | 313 | 3.2 | 9.7 | 0.00 | 0.03 | 0.00 | 76 | 1016.8 |
| 20260510200045 | 24 | 313 | 3.2 | 12.9 | 0.00 | 0.03 | 0.00 | 72 | 1016.8 |
| 20260510195521 | 24 | 326 | 4.8 | 12.9 | 0.00 | 0.03 | 0.00 | 73 | 1016.8 |
| 20260510195019 | 24 | 5 | 4.8 | 11.3 | 0.00 | 0.03 | 0.00 | 75 | 1016.9 |
| 20260510194521 | 23 | 322 | 3.2 | 8.0 | 0.00 | 0.03 | 0.00 | 77 | 1016.9 |
| 20260510194047 | 23 | 140 | 3.2 | 12.9 | 0.00 | 0.03 | 0.00 | 74 | 1016.8 |
| 20260510193528 | 23 | 103 | 6.4 | 12.9 | 0.00 | 0.03 | 0.00 | 77 | 1016.9 |
| 20260510193031 | 23 | 116 | 6.4 | 8.0 | 0.00 | 0.03 | 0.00 | 78 | 1016.9 |
| 20260510192531 | 23 | 134 | 3.2 | 8.0 | 0.00 | 0.03 | 0.00 | 78 | 1016.9 |
| 20260510192033 | 23 | 190 | 6.4 | 8.0 | 0.00 | 0.03 | 0.00 | 75 | 1017.0 |
| 20260510191519 | 22 | 197 | 1.6 | 6.4 | 0.00 | 0.03 | 0.00 | 77 | 1017.1 |
| 20260510191019 | 22 | 128 | 4.8 | 9.7 | 0.00 | 0.03 | 0.00 | 77 | 1017.1 |
| 20260510190518 | 23 | 14 | 6.4 | 12.9 | 0.00 | 0.03 | 0.00 | 77 | 1017.2 |
| 20260510190021 | 22 | 5 | 6.4 | 12.9 | 0.00 | 0.03 | 0.00 | 78 | 1017.2 |
| 20260510185522 | 22 | 297 | 1.6 | 9.7 | 0.00 | 0.03 | 0.00 | 79 | 1017.3 |
| 20260510185023 | 22 | 328 | 4.8 | 9.7 | 0.00 | 0.03 | 0.00 | 81 | 1017.4 |
| 20260510184525 | 22 | 340 | 6.4 | 9.7 | 0.00 | 0.03 | 0.00 | 82 | 1017.4 |
| 20260510184025 | 22 | 327 | 4.8 | 9.7 | 0.00 | 0.03 | 0.00 | 84 | 1017.5 |
| 20260510183527 | 21 | 349 | 3.2 | 6.4 | 0.00 | 0.03 | 0.00 | 86 | 1017.5 |
| 20260510183028 | 20 | 310 | 3.2 | 8.0 | 0.00 | 0.03 | 0.00 | 87 | 1017.5 |
| 20260510182531 | 20 | 13 | 3.2 | 8.0 | 0.00 | 0.03 | 0.00 | 88 | 1017.6 |
| 20260510182031 | 20 | 5 | 1.6 | 6.4 | 0.00 | 0.03 | 0.00 | 87 | 1017.6 |
| 20260510181519 | 20 | 30 | 4.8 | 6.4 | 0.00 | 0.03 | 0.00 | 88 | 1017.7 |
| 20260510181019 | 20 | 325 | 1.6 | 6.4 | 0.00 | 0.03 | 0.00 | 88 | 1017.7 |
| 20260510180541 | 20 | 10 | 3.2 | 6.4 | 0.00 | 0.03 | 0.00 | 88 | 1017.7 |
| 20260510180017 | 20 | 5 | 3.2 | 8.0 | 0.00 | 0.03 | 0.00 | 89 | 1017.8 |
| 20260510175519 | 20 | 330 | 1.6 | 8.0 | 0.00 | 0.03 | 0.00 | 90 | 1017.8 |
| 20260510175018 | 20 | 346 | 3.2 | 6.4 | 0.00 | 0.03 | 0.00 | 89 | 1017.9 |
| 20260510174519 | 20 | 30 | 3.2 | 6.4 | 0.00 | 0.03 | 0.00 | 90 | 1018.0 |
| 20260510174021 | 20 | 59 | 1.6 | 4.8 | 0.00 | 0.03 | 0.00 | 91 | 1018.0 |
| 20260510173544 | 19 | 355 | 0.0 | 3.2 | 0.00 | 0.03 | 0.00 | 90 | 1018.2 |
| 20260510173025 | 19 | 355 | 0.0 | 4.8 | 0.00 | 0.03 | 0.00 | 90 | 1018.2 |
| 20260510172528 | 19 | 355 | 0.0 | 4.8 | 0.00 | 0.03 | 0.00 | 91 | 1018.1 |
| 20260510172029 | 19 | 336 | 0.0 | 8.0 | 0.00 | 0.03 | 0.00 | 92 | 1018.2 |
| 20260510171528 | 19 | 336 | 1.6 | 8.0 | 0.00 | 0.03 | 0.00 | 92 | 1018.2 |
| 20260510171029 | 19 | 334 | 3.2 | 6.4 | 0.00 | 0.03 | 0.00 | 93 | 1018.2 |
| 20260510170531 | 19 | 19 | 3.2 | 6.4 | 0.00 | 0.03 | 0.00 | 93 | 1018.1 |
| 20260510170027 | 18 | 134 | 3.2 | 6.4 | 0.00 | 0.03 | 0.00 | 93 | 1018.2 |
| 20260510165528 | 19 | 118 | 1.6 | 4.8 | 0.00 | 0.03 | 0.00 | 94 | 1018.2 |
| 20260510165028 | 18 | 36 | 1.6 | 4.8 | 0.00 | 0.03 | 0.00 | 93 | 1018.3 |
| 20260510164528 | 19 | 193 | 0.0 | 4.8 | 0.00 | 0.03 | 0.00 | 94 | 1018.3 |
| 20260510164029 | 18 | 112 | 3.2 | 8.0 | 0.00 | 0.03 | 0.00 | 95 | 1018.2 |
| 20260510163553 | 18 | 167 | 4.8 | 9.7 | 0.00 | 0.03 | 0.00 | 95 | 1018.3 |
| 20260510163013 | 18 | 120 | 3.2 | 6.4 | 0.00 | 0.03 | 0.00 | 96 | 1018.3 |
| 20260510162519 | 18 | 125 | 1.6 | 4.8 | 0.00 | 0.03 | 0.00 | 96 | 1018.1 |
| 20260510162021 | 18 | 94 | 3.2 | 4.8 | 0.00 | 0.03 | 0.00 | 96 | 1018.2 |
| 20260510161522 | 18 | 122 | 3.2 | 6.4 | 0.00 | 0.03 | 0.00 | 96 | 1018.2 |
| 20260510161024 | 18 | 140 | 3.2 | 6.4 | 0.00 | 0.03 | 0.00 | 96 | 1018.2 |
| 20260510160526 | 18 | 74 | 0.0 | 4.8 | 0.00 | 0.03 | 0.00 | 97 | 1018.2 |
| 20260510160023 | 18 | 89 | 1.6 | 6.4 | 0.00 | 0.03 | 0.00 | 97 | 1018.2 |
| 20260510155522 | 18 | 89 | 1.6 | 8.0 | 0.00 | 0.03 | 0.00 | 97 | 1018.2 |
| 20260510155025 | 18 | 92 | 3.2 | 8.0 | 0.00 | 0.03 | 0.00 | 98 | 1018.2 |
| 20260510154527 | 17 | 118 | 1.6 | 4.8 | 0.00 | 0.03 | 0.00 | 98 | 1018.1 |
| 20260510154026 | 17 | 117 | 3.2 | 4.8 | 0.00 | 0.03 | 0.00 | 98 | 1018.1 |
| 20260510153516 | 17 | 42 | 0.0 | 6.4 | 0.00 | 0.03 | 0.00 | 98 | 1018.1 |
| 20260510153019 | 17 | 111 | 3.2 | 6.4 | 0.00 | 0.03 | 0.00 | 98 | 1018.2 |
| 20260510152542 | 17 | 123 | 1.6 | 4.8 | 0.00 | 0.03 | 0.00 | 98 | 1018.2 |
| 20260510152021 | 17 | 34 | 1.6 | 4.8 | 0.00 | 0.03 | 0.00 | 98 | 1018.1 |
| 20260510151525 | 17 | 49 | 1.6 | 4.8 | 0.00 | 0.03 | 0.00 | 98 | 1018.1 |
| 20260510151029 | 17 | 26 | 1.6 | 6.4 | 0.00 | 0.03 | 0.00 | 99 | 1018.1 |
| 20260510150531 | 17 | 296 | 1.6 | 6.4 | 0.00 | 0.03 | 0.00 | 98 | 1018.1 |
| 20260510150031 | 17 | 360 | 0.0 | 4.8 | 0.00 | 0.03 | 0.00 | 99 | 1018.0 |
| 20260510145528 | 17 | 360 | 0.0 | 4.8 | 0.00 | 0.03 | 0.00 | 98 | 1018.1 |
| 20260510145031 | 17 | 16 | 1.6 | 6.4 | 0.00 | 0.03 | 0.00 | 98 | 1018.0 |
| 20260510144530 | 17 | 111 | 3.2 | 8.0 | 0.00 | 0.03 | 0.00 | 99 | 1018.0 |
| 20260510144019 | 17 | 9 | 3.2 | 8.0 | 0.00 | 0.03 | 0.00 | 98 | 1017.9 |
| 20260510143520 | 17 | 312 | 0.0 | 6.4 | 0.00 | 0.03 | 0.00 | 98 | 1017.9 |
| 20260510143021 | 17 | 50 | 1.6 | 6.4 | 0.00 | 0.03 | 0.00 | 98 | 1018.0 |
| 20260510142523 | 17 | 32 | 3.2 | 6.4 | 0.00 | 0.03 | 0.00 | 98 | 1018.0 |
| 20260510142025 | 17 | 70 | 1.6 | 3.2 | 0.00 | 0.03 | 0.00 | 99 | 1017.9 |
| 20260510141550 | 17 | 70 | 1.6 | 6.4 | 0.00 | 0.03 | 0.00 | 98 | 1017.8 |
| 20260510141016 | 17 | 42 | 1.6 | 6.4 | 0.00 | 0.03 | 0.00 | 98 | 1017.8 |
| 20260510140521 | 17 | 19 | 3.2 | 4.8 | 0.00 | 0.03 | 0.00 | 98 | 1017.9 |
| 20260510140021 | 17 | 45 | 3.2 | 4.8 | 0.00 | 0.03 | 0.00 | 99 | 1017.8 |
| 20260510135548 | 17 | 57 | 0.0 | 3.2 | 0.00 | 0.03 | 0.00 | 98 | 1017.8 |
| 20260510135028 | 17 | 80 | 1.6 | 4.8 | 0.00 | 0.03 | 0.00 | 99 | 1017.7 |
| 20260510134526 | 17 | 28 | 1.6 | 4.8 | 0.00 | 0.03 | 0.00 | 98 | 1017.7 |
| 20260510134026 | 17 | 106 | 0.0 | 4.8 | 0.00 | 0.03 | 0.00 | 99 | 1017.7 |
| 20260510133528 | 17 | 107 | 3.2 | 6.4 | 0.00 | 0.03 | 0.00 | 98 | 1017.5 |
| 20260510133016 | 17 | 136 | 3.2 | 6.4 | 0.00 | 0.03 | 0.00 | 98 | 1017.5 |
| 20260510132538 | 17 | 115 | 1.6 | 4.8 | 0.00 | 0.03 | 0.00 | 98 | 1017.6 |
| 20260510132046 | 17 | 355 | 0.0 | 1.6 | 0.00 | 0.03 | 0.00 | 98 | 1017.5 |
| 20260510131553 | 17 | 355 | 0.0 | 4.8 | 0.00 | 0.03 | 0.00 | 98 | 1017.4 |
| 20260510131014 | 16 | 355 | 1.6 | 4.8 | 0.00 | 0.03 | 0.00 | 98 | 1017.4 |
| 20260510130513 | 16 | 327 | 1.6 | 4.8 | 0.00 | 0.03 | 0.00 | 98 | 1017.4 |
| 20260510130021 | 16 | 32 | 0.0 | 1.6 | 0.00 | 0.03 | 0.00 | 98 | 1017.3 |
| 20260510125525 | 16 | 32 | 0.0 | 3.2 | 0.00 | 0.03 | 0.00 | 98 | 1017.4 |
| 20260510125024 | 16 | 74 | 1.6 | 3.2 | 0.00 | 0.03 | 0.00 | 98 | 1017.4 |
| 20260510124527 | 16 | 120 | 0.0 | 3.2 | 0.00 | 0.03 | 0.00 | 98 | 1017.2 |
| 20260510124015 | 16 | 91 | 1.6 | 4.8 | 0.00 | 0.03 | 0.00 | 98 | 1017.2 |
| 20260510123521 | 16 | 126 | 1.6 | 8.0 | 0.00 | 0.03 | 0.00 | 98 | 1017.0 |
| 20260510123025 | 16 | 130 | 3.2 | 8.0 | 0.00 | 0.03 | 0.00 | 98 | 1017.0 |
| 20260510122524 | 16 | 134 | 4.8 | 8.0 | 0.00 | 0.03 | 0.00 | 98 | 1017.0 |
| 20260510122025 | 16 | 136 | 3.2 | 6.4 | 0.00 | 0.03 | 0.00 | 98 | 1016.9 |
| 20260510121530 | 16 | 151 | 3.2 | 6.4 | 0.00 | 0.03 | 0.00 | 98 | 1016.9 |
| 20260510121032 | 16 | 131 | 3.2 | 4.8 | 0.00 | 0.03 | 0.00 | 98 | 1016.9 |
| 20260510120536 | 16 | 126 | 3.2 | 4.8 | 0.00 | 0.03 | 0.00 | 98 | 1016.8 |
| 20260510120037 | 16 | 155 | 1.6 | 3.2 | 0.00 | 0.03 | 0.00 | 98 | 1016.8 |
| 20260510115540 | 16 | 134 | 3.2 | 6.4 | 0.00 | 0.03 | 0.00 | 98 | 1016.7 |
| 20260510115040 | 16 | 129 | 3.2 | 6.4 | 0.00 | 0.03 | 0.00 | 98 | 1016.7 |
| 20260510114543 | 16 | 146 | 3.2 | 8.0 | 0.00 | 0.03 | 0.00 | 98 | 1016.6 |
| 20260510114026 | 16 | 157 | 3.2 | 8.0 | 0.00 | 0.03 | 0.00 | 98 | 1016.5 |
| 20260510113527 | 16 | 127 | 3.2 | 6.4 | 0.00 | 0.03 | 0.00 | 98 | 1016.4 |
| 20260510113017 | 16 | 11 | 0.0 | 3.2 | 0.00 | 0.03 | 0.00 | 98 | 1016.4 |
| 20260510112519 | 16 | 11 | 1.6 | 4.8 | 0.00 | 0.03 | 0.00 | 98 | 1016.2 |
| 20260510112019 | 15 | 350 | 1.6 | 4.8 | 0.00 | 0.03 | 0.00 | 98 | 1016.1 |
| 20260510111522 | 15 | 5 | 3.2 | 6.4 | 0.00 | 0.03 | 0.00 | 98 | 1016.0 |
| 20260510111045 | 16 | 27 | 4.8 | 6.4 | 0.00 | 0.03 | 0.00 | 98 | 1015.7 |
| 20260510110551 | 16 | 347 | 3.2 | 6.4 | 0.00 | 0.03 | 0.00 | 98 | 1015.5 |
| 20260510110017 | 15 | 338 | 3.2 | 6.4 | 0.00 | 0.03 | 0.00 | 98 | 1015.5 |
| 20260510105539 | 15 | 355 | 4.8 | 6.4 | 0.00 | 0.03 | 0.00 | 98 | 1015.4 |
| 20260510105019 | 15 | 355 | 3.2 | 4.8 | 0.00 | 0.03 | 0.00 | 98 | 1015.2 |
| 20260510104522 | 15 | 346 | 1.6 | 4.8 | 0.00 | 0.03 | 0.00 | 98 | 1015.2 |
| 20260510104024 | 15 | 341 | 3.2 | 4.8 | 0.00 | 0.03 | 0.00 | 98 | 1015.0 |
| 20260510103529 | 15 | 332 | 1.6 | 4.8 | 0.00 | 0.03 | 0.00 | 98 | 1015.0 |
| 20260510103031 | 15 | 355 | 1.6 | 3.2 | 0.00 | 0.03 | 0.00 | 98 | 1014.9 |
| 20260510102516 | 15 | 139 | 0.0 | 0.0 | 0.00 | 0.03 | 0.00 | 98 | 1014.9 |
| 20260510102021 | 15 | 139 | 0.0 | 1.6 | 0.00 | 0.03 | 0.00 | 98 | 1014.8 |
| 20260510101527 | 15 | 139 | 0.0 | 1.6 | 0.00 | 0.03 | 0.00 | 98 | 1014.8 |
| 20260510101030 | 15 | 139 | 0.0 | 0.0 | 0.00 | 0.03 | 0.00 | 98 | 1014.7 |
| 20260510100519 | 15 | 139 | 0.0 | 3.2 | 0.00 | 0.03 | 0.00 | 98 | 1014.7 |
| 20260510100044 | 15 | 139 | 0.0 | 4.8 | 0.00 | 0.03 | 0.00 | 98 | 1014.7 |
| 20260510095540 | 15 | 139 | 3.2 | 4.8 | 0.00 | 0.03 | 0.00 | 98 | 1014.6 |
| 20260510095038 | 15 | 157 | 4.8 | 8.0 | 0.00 | 0.03 | 0.00 | 98 | 1014.6 |
| 20260510094521 | 15 | 151 | 4.8 | 8.0 | 0.00 | 0.03 | 0.00 | 98 | 1014.5 |
| 20260510094025 | 15 | 155 | 6.4 | 8.0 | 0.00 | 0.03 | 0.00 | 98 | 1014.5 |
| 20260510093530 | 15 | 153 | 6.4 | 8.0 | 0.00 | 0.03 | 0.00 | 98 | 1014.4 |
| 20260510093018 | 15 | 159 | 4.8 | 6.4 | 0.00 | 0.03 | 0.00 | 98 | 1014.2 |
| 20260510092541 | 15 | 327 | 0.0 | 0.0 | 0.00 | 0.03 | 0.00 | 98 | 1014.1 |
| 20260510092021 | 15 | 327 | 0.0 | 0.0 | 0.00 | 0.03 | 0.00 | 98 | 1014.0 |
| 20260510091546 | 15 | 327 | 0.0 | 0.0 | 0.00 | 0.03 | 0.00 | 98 | 1014.0 |
| 20260510091047 | 15 | 327 | 0.0 | 0.0 | 0.00 | 0.03 | 0.00 | 98 | 1013.9 |
| 20260510090527 | 16 | 327 | 0.0 | 0.0 | 0.00 | 0.03 | 0.00 | 98 | 1013.8 |
| 20260510090027 | 16 | 327 | 0.0 | 1.6 | 0.00 | 0.18 | 0.00 | 98 | 1013.8 |
| 20260510085526 | 16 | 327 | 0.0 | 1.6 | 0.00 | 0.18 | 0.00 | 98 | 1013.8 |
| 20260510085029 | 16 | 327 | 0.0 | 0.0 | 0.00 | 0.18 | 0.00 | 98 | 1013.7 |
| 20260510084516 | 16 | 327 | 0.0 | 1.6 | 0.00 | 0.18 | 0.00 | 98 | 1013.7 |
| 20260510084021 | 16 | 327 | 0.0 | 4.8 | 0.00 | 0.18 | 0.00 | 98 | 1013.5 |
| 20260510083522 | 16 | 327 | 1.6 | 6.4 | 0.00 | 0.18 | 0.00 | 98 | 1013.6 |
| 20260510083024 | 16 | 335 | 3.2 | 6.4 | 0.00 | 0.18 | 0.00 | 98 | 1013.5 |
| 20260510082526 | 16 | 343 | 3.2 | 4.8 | 0.00 | 0.18 | 0.00 | 98 | 1013.6 |
| 20260510082029 | 16 | 343 | 1.6 | 4.8 | 0.00 | 0.18 | 0.00 | 97 | 1013.5 |
| 20260510081517 | 16 | 343 | 1.6 | 4.8 | 0.00 | 0.18 | 0.00 | 97 | 1013.5 |
| 20260510081041 | 16 | 343 | 0.0 | 6.4 | 0.00 | 0.18 | 0.00 | 98 | 1013.5 |
| 20260510080521 | 16 | 343 | 1.6 | 6.4 | 0.00 | 0.18 | 0.00 | 97 | 1013.5 |
| 20260510080020 | 16 | 326 | 3.2 | 8.0 | 0.00 | 0.18 | 0.00 | 98 | 1013.6 |
| 20260510075518 | 16 | 329 | 3.2 | 9.7 | 0.00 | 0.18 | 0.00 | 98 | 1013.4 |
| 20260510075019 | 16 | 315 | 6.4 | 9.7 | 0.00 | 0.18 | 0.00 | 97 | 1013.4 |
| 20260510074522 | 16 | 309 | 6.4 | 9.7 | 0.00 | 0.18 | 0.00 | 97 | 1013.5 |
| 20260510074050 | 16 | 349 | 4.8 | 9.7 | 0.00 | 0.18 | 0.00 | 97 | 1013.4 |
| 20260510073530 | 16 | 343 | 6.4 | 9.7 | 0.00 | 0.18 | 0.00 | 97 | 1013.3 |
| 20260510073015 | 16 | 327 | 6.4 | 9.7 | 0.00 | 0.18 | 0.00 | 97 | 1013.4 |
| 20260510072519 | 16 | 336 | 4.8 | 9.7 | 0.00 | 0.18 | 0.00 | 97 | 1013.4 |
| 20260510072021 | 16 | 320 | 6.4 | 9.7 | 0.00 | 0.18 | 0.00 | 97 | 1013.4 |
| 20260510071544 | 16 | 317 | 4.8 | 8.0 | 0.00 | 0.18 | 0.00 | 97 | 1013.4 |
| 20260510071049 | 16 | 317 | 4.8 | 8.0 | 0.00 | 0.18 | 0.00 | 97 | 1013.4 |
| 20260510070549 | 16 | 322 | 4.8 | 8.0 | 0.00 | 0.18 | 0.00 | 97 | 1013.4 |
| 20260510070026 | 16 | 325 | 3.2 | 6.4 | 0.00 | 0.18 | 0.00 | 97 | 1013.5 |
| 20260510065550 | 16 | 307 | 4.8 | 6.4 | 0.00 | 0.18 | 0.00 | 97 | 1013.6 |
| 20260510065017 | 16 | 307 | 4.8 | 6.4 | 0.00 | 0.18 | 0.00 | 97 | 1013.7 |
| 20260510064518 | 16 | 307 | 4.8 | 6.4 | 0.00 | 0.18 | 0.00 | 97 | 1013.8 |
| 20260510064022 | 16 | 305 | 3.2 | 4.8 | 0.00 | 0.18 | 0.00 | 97 | 1013.8 |
| 20260510063523 | 16 | 323 | 3.2 | 3.2 | 0.00 | 0.18 | 0.00 | 97 | 1013.9 |
| 20260510063049 | 17 | 288 | 1.6 | 3.2 | 0.00 | 0.18 | 0.00 | 97 | 1013.9 |
| 20260510062519 | 17 | 284 | 0.0 | 4.8 | 0.00 | 0.18 | 0.00 | 97 | 1013.9 |
| 20260510062022 | 17 | 198 | 1.6 | 4.8 | 0.00 | 0.18 | 0.00 | 97 | 1013.9 |
| 20260510061549 | 17 | 202 | 1.6 | 3.2 | 0.00 | 0.18 | 0.00 | 97 | 1013.8 |
| 20260510061051 | 17 | 246 | 0.0 | 3.2 | 0.00 | 0.18 | 0.00 | 97 | 1014.0 |
| 20260510060517 | 17 | 246 | 0.0 | 3.2 | 0.00 | 0.18 | 0.00 | 96 | 1014.0 |
| 20260510055513 | 17 | 209 | 1.6 | 3.2 | 0.00 | 0.18 | 0.00 | 97 | 1013.9 |
| 20260510055016 | 17 | 209 | 0.0 | 1.6 | 0.00 | 0.18 | 0.00 | 96 | 1014.0 |
| 20260510054520 | 17 | 209 | 0.0 | 3.2 | 0.00 | 0.18 | 0.00 | 96 | 1014.1 |
| 20260510054023 | 17 | 209 | 0.0 | 3.2 | 0.00 | 0.18 | 0.00 | 96 | 1014.2 |
| 20260510053523 | 17 | 209 | 0.0 | 3.2 | 0.00 | 0.18 | 0.00 | 96 | 1014.2 |
| 20260510053042 | 17 | 209 | 0.0 | 3.2 | 0.00 | 0.18 | 0.00 | 96 | 1014.1 |
| 20260510052521 | 17 | 241 | 0.0 | 3.2 | 0.00 | 0.18 | 0.00 | 96 | 1014.2 |
| 20260510052024 | 17 | 225 | 0.0 | 4.8 | 0.00 | 0.18 | 0.00 | 96 | 1014.1 |
| 20260510051543 | 17 | 247 | 1.6 | 4.8 | 0.00 | 0.18 | 0.00 | 96 | 1014.0 |
| 20260510051047 | 17 | 221 | 1.6 | 6.4 | 0.00 | 0.18 | 0.00 | 96 | 1014.1 |
| 20260510050530 | 17 | 232 | 1.6 | 6.4 | 0.00 | 0.18 | 0.00 | 96 | 1014.0 |
| 20260510050017 | 17 | 223 | 3.2 | 4.8 | 0.00 | 0.18 | 0.18 | 96 | 1014.2 |
| 20260510045519 | 18 | 194 | 1.6 | 6.4 | 0.00 | 0.18 | 0.18 | 96 | 1014.2 |
| 20260510045021 | 18 | 207 | 3.2 | 9.7 | 0.00 | 0.18 | 0.18 | 96 | 1014.2 |
| 20260510044547 | 18 | 226 | 3.2 | 8.0 | 0.00 | 0.18 | 0.18 | 96 | 1014.2 |
| 20260510044049 | 18 | 244 | 1.6 | 3.2 | 0.00 | 0.18 | 0.18 | 96 | 1014.3 |
| 20260510043526 | 18 | 215 | 1.6 | 4.8 | 0.00 | 0.18 | 0.18 | 96 | 1014.2 |
| 20260510043028 | 18 | 225 | 1.6 | 4.8 | 0.00 | 0.18 | 0.18 | 96 | 1014.1 |
| 20260510042516 | 18 | 206 | 1.6 | 4.8 | 0.00 | 0.18 | 0.18 | 96 | 1014.2 |
| 20260510042043 | 18 | 204 | 1.6 | 4.8 | 0.00 | 0.18 | 0.18 | 96 | 1014.2 |
| 20260510041517 | 18 | 204 | 1.6 | 8.0 | 0.00 | 0.18 | 0.18 | 96 | 1014.3 |
| 20260510041017 | 18 | 203 | 3.2 | 9.7 | 0.00 | 0.18 | 0.18 | 96 | 1014.3 |
| 20260510040541 | 18 | 231 | 3.2 | 9.7 | 0.00 | 0.18 | 0.18 | 96 | 1014.3 |
| 20260510040048 | 18 | 240 | 1.6 | 6.4 | 0.00 | 0.18 | 0.18 | 96 | 1014.3 |
| 20260510035550 | 18 | 211 | 3.2 | 6.4 | 0.00 | 0.18 | 0.18 | 96 | 1014.2 |
| 20260510035016 | 18 | 191 | 3.2 | 8.0 | 0.00 | 0.18 | 0.18 | 96 | 1014.4 |
| 20260510034521 | 18 | 198 | 3.2 | 8.0 | 0.00 | 0.18 | 0.18 | 96 | 1014.5 |
| 20260510034048 | 18 | 217 | 1.6 | 6.4 | 0.00 | 0.18 | 0.18 | 96 | 1014.3 |
| 20260510033524 | 18 | 257 | 1.6 | 6.4 | 0.00 | 0.18 | 0.18 | 96 | 1014.3 |
| 20260510033051 | 18 | 215 | 3.2 | 8.0 | 0.00 | 0.18 | 0.18 | 96 | 1014.4 |
| 20260510032516 | 18 | 194 | 1.6 | 8.0 | 0.00 | 0.18 | 0.18 | 96 | 1014.6 |
| 20260510032019 | 18 | 247 | 3.2 | 8.0 | 0.00 | 0.18 | 0.18 | 96 | 1014.6 |
| 20260510031521 | 18 | 209 | 1.6 | 4.8 | 0.00 | 0.18 | 0.18 | 96 | 1014.6 |
| 20260510031048 | 18 | 194 | 1.6 | 8.0 | 0.00 | 0.18 | 0.18 | 96 | 1014.5 |
| 20260510030527 | 18 | 205 | 3.2 | 8.0 | 0.00 | 0.18 | 0.18 | 96 | 1014.3 |
| 20260510030032 | 18 | 207 | 1.6 | 6.4 | 0.00 | 0.18 | 0.18 | 96 | 1014.3 |
| 20260510025513 | 18 | 204 | 1.6 | 6.4 | 0.00 | 0.18 | 0.18 | 96 | 1014.3 |
| 20260510025021 | 18 | 221 | 3.2 | 6.4 | 0.00 | 0.18 | 0.18 | 96 | 1014.4 |
| 20260510024544 | 18 | 200 | 1.6 | 6.4 | 0.00 | 0.18 | 0.18 | 96 | 1014.4 |
| 20260510024027 | 18 | 200 | 1.6 | 6.4 | 0.00 | 0.18 | 0.18 | 96 | 1014.3 |
| 20260510023525 | 18 | 188 | 3.2 | 8.0 | 0.00 | 0.18 | 0.18 | 96 | 1014.3 |
| 20260510023051 | 18 | 199 | 3.2 | 8.0 | 0.00 | 0.18 | 0.18 | 96 | 1014.3 |
| 20260510022516 | 18 | 182 | 3.2 | 9.7 | 0.00 | 0.18 | 0.18 | 96 | 1014.1 |
| 20260510022018 | 18 | 174 | 4.8 | 8.0 | 0.00 | 0.18 | 0.18 | 96 | 1014.0 |
| 20260510021543 | 18 | 180 | 4.8 | 8.0 | 0.00 | 0.18 | 0.18 | 96 | 1014.0 |
| 20260510021050 | 18 | 147 | 3.2 | 6.4 | 0.00 | 0.18 | 0.18 | 96 | 1014.0 |
| 20260510020531 | 18 | 173 | 4.8 | 8.0 | 0.00 | 0.18 | 0.18 | 96 | 1013.8 |
| 20260510020020 | 18 | 184 | 4.8 | 8.0 | 0.00 | 0.18 | 0.18 | 96 | 1013.8 |
| 20260510015545 | 18 | 172 | 4.8 | 8.0 | 0.00 | 0.18 | 0.18 | 96 | 1013.8 |
| 20260510015014 | 18 | 175 | 3.2 | 8.0 | 0.00 | 0.18 | 0.18 | 96 | 1013.8 |
| 20260510014529 | 18 | 159 | 3.2 | 8.0 | 0.00 | 0.18 | 0.18 | 96 | 1013.5 |
| 20260510014016 | 18 | 148 | 4.8 | 8.0 | 0.00 | 0.18 | 0.18 | 96 | 1013.4 |
| 20260510013522 | 18 | 162 | 4.8 | 8.0 | 0.00 | 0.18 | 0.18 | 95 | 1013.4 |
| 20260510013025 | 18 | 150 | 4.8 | 8.0 | 0.00 | 0.18 | 0.18 | 95 | 1013.2 |
| 20260510012550 | 18 | 155 | 4.8 | 8.0 | 0.00 | 0.18 | 0.18 | 95 | 1013.1 |
| 20260510012016 | 18 | 150 | 4.8 | 6.4 | 0.00 | 0.18 | 0.18 | 95 | 1013.1 |
| 20260510011520 | 18 | 154 | 3.2 | 8.0 | 0.00 | 0.18 | 0.18 | 95 | 1013.1 |
| 20260510011024 | 18 | 147 | 4.8 | 8.0 | 0.00 | 0.18 | 0.18 | 95 | 1012.9 |
| 20260510010529 | 18 | 159 | 4.8 | 9.7 | 0.00 | 0.18 | 0.18 | 95 | 1012.9 |
| 20260510010031 | 18 | 142 | 6.4 | 9.7 | 0.00 | 0.18 | 0.18 | 95 | 1012.8 |
| 20260510005519 | 18 | 157 | 3.2 | 9.7 | 0.00 | 0.18 | 0.18 | 95 | 1012.8 |
| 20260510005043 | 18 | 155 | 4.8 | 9.7 | 0.00 | 0.18 | 0.18 | 95 | 1012.6 |
| 20260510004542 | 18 | 154 | 4.8 | 9.7 | 0.00 | 0.18 | 0.18 | 95 | 1012.7 |
| 20260510004023 | 18 | 148 | 4.8 | 9.7 | 0.00 | 0.18 | 0.18 | 94 | 1012.7 |
| 20260510003521 | 18 | 155 | 4.8 | 8.0 | 0.00 | 0.18 | 0.18 | 94 | 1012.6 |
| 20260510003025 | 18 | 171 | 4.8 | 8.0 | 0.00 | 0.18 | 0.18 | 94 | 1012.7 |
| 20260510002522 | 18 | 139 | 4.8 | 9.7 | 0.00 | 0.18 | 0.18 | 94 | 1012.7 |
| 20260510002028 | 19 | 154 | 6.4 | 9.7 | 0.00 | 0.18 | 0.18 | 94 | 1012.7 |
| 20260510001518 | 19 | 152 | 6.4 | 9.7 | 0.00 | 0.18 | 0.18 | 94 | 1012.8 |
| 20260510001023 | 19 | 152 | 4.8 | 9.7 | 0.00 | 0.18 | 0.18 | 94 | 1012.7 |
| 20260510000549 | 19 | 153 | 6.4 | 9.7 | 0.00 | 0.18 | 0.18 | 93 | 1012.5 |
| 20260510000030 | 19 | 159 | 4.8 | 9.7 | 0.00 | 0.18 | 0.18 | 93 | 1012.5 |
| 20260509235518 | 19 | 157 | 4.8 | 11.3 | 0.00 | 0.18 | 0.18 | 93 | 1012.5 |
| 20260509235021 | 19 | 130 | 6.4 | 11.3 | 0.00 | 0.18 | 0.18 | 93 | 1012.4 |
| 20260509234522 | 19 | 161 | 4.8 | 8.0 | 0.00 | 0.18 | 0.18 | 93 | 1012.4 |
| 20260509234024 | 19 | 132 | 3.2 | 8.0 | 0.00 | 0.18 | 0.18 | 93 | 1012.3 |
| 20260509233550 | 19 | 150 | 3.2 | 8.0 | 0.00 | 0.18 | 0.18 | 93 | 1012.1 |
| 20260509233019 | 20 | 133 | 4.8 | 8.0 | 0.00 | 0.18 | 0.18 | 93 | 1012.0 |
| 20260509232524 | 20 | 134 | 4.8 | 8.0 | 0.00 | 0.18 | 0.18 | 92 | 1012.0 |
| 20260509232029 | 20 | 136 | 3.2 | 6.4 | 0.00 | 0.18 | 0.18 | 92 | 1012.0 |
| 20260509231517 | 20 | 132 | 4.8 | 6.4 | 0.00 | 0.18 | 0.18 | 91 | 1012.1 |
| 20260509231021 | 20 | 163 | 3.2 | 6.4 | 0.03 | 0.18 | 0.18 | 91 | 1012.1 |
| 20260509230525 | 20 | 130 | 4.8 | 6.4 | 0.03 | 0.18 | 0.18 | 90 | 1012.0 |
| 20260509230027 | 20 | 146 | 3.2 | 6.4 | 0.03 | 0.18 | 0.18 | 89 | 1012.1 |
| 20260509225517 | 20 | 160 | 4.8 | 6.4 | 0.03 | 0.18 | 0.18 | 89 | 1012.0 |
| 20260509225049 | 20 | 140 | 3.2 | 6.4 | 0.03 | 0.18 | 0.18 | 88 | 1011.9 |
| 20260509224532 | 20 | 139 | 3.2 | 6.4 | 0.03 | 0.18 | 0.18 | 87 | 1011.9 |
| 20260509224018 | 21 | 166 | 3.2 | 6.4 | 0.03 | 0.18 | 0.18 | 85 | 1011.9 |
| 20260509223538 | 21 | 170 | 3.2 | 4.8 | 0.03 | 0.18 | 0.18 | 85 | 1011.9 |
| 20260509223034 | 21 | 164 | 1.6 | 3.2 | 0.03 | 0.18 | 0.18 | 85 | 1011.8 |
| 20260509222537 | 21 | 158 | 1.6 | 3.2 | 0.03 | 0.18 | 0.18 | 84 | 1011.7 |
| 20260509222019 | 21 | 158 | 1.6 | 3.2 | 0.03 | 0.18 | 0.18 | 84 | 1011.7 |
| 20260509221522 | 21 | 134 | 0.0 | 3.2 | 0.03 | 0.18 | 0.18 | 83 | 1011.6 |
| 20260509221029 | 21 | 140 | 3.2 | 3.2 | 0.00 | 0.15 | 0.15 | 82 | 1011.6 |
| 20260509220528 | 21 | 123 | 1.6 | 3.2 | 0.00 | 0.15 | 0.15 | 83 | 1011.7 |
| 20260509220031 | 21 | 96 | 1.6 | 3.2 | 0.00 | 0.15 | 0.15 | 83 | 1011.7 |
| 20260509215519 | 21 | 96 | 0.0 | 3.2 | 0.00 | 0.15 | 0.15 | 83 | 1011.4 |
| 20260509215046 | 21 | 96 | 1.6 | 3.2 | 0.00 | 0.15 | 0.15 | 82 | 1011.4 |
| 20260509214543 | 21 | 96 | 1.6 | 3.2 | 0.00 | 0.15 | 0.15 | 80 | 1011.4 |